Location: Chamberlains
(47.5264°N, 52.9333°W)
Time: 01:14:20
(UTC+00:00)

Envisat - Visible Passes

Search period start: 13 August 2022 00:00
Search period end: 23 August 2022 00:00
Orbit: 763 x 765 km, 98.2° (Epoch: 12 August)

Date Brightness Start Highest point End Pass type
(mag) Time Alt. Az. Time Alt. Az. Time Alt. Az.
13 Aug 4.6 07:23:30 10° NNE 07:28:10 35° E 07:32:47 10° SSE visible
14 Aug 5.6 06:47:31 10° NE 06:50:51 17° E 06:54:10 10° SE visible
15 Aug 3.7 07:48:23 10° NNE 07:53:24 59° E 07:58:25 10° S visible
16 Aug 5.0 07:11:53 10° NE 07:16:15 28° E 07:20:37 10° SSE visible
17 Aug 5.7 06:36:21 10° ENE 06:38:53 14° E 06:41:25 10° ESE visible
18 Aug 4.1 07:36:39 10° NNE 07:41:33 46° E 07:46:26 10° S visible
19 Aug 5.3 07:00:20 10° NE 07:04:20 23° E 07:08:18 10° SE visible
20 Aug 6.0 06:25:53 10° ENE 06:26:54 11° E 06:27:55 10° E visible
20 Aug 3.2 08:01:39 10° NNE 08:06:46 78° ESE 08:11:50 10° S visible
21 Aug 4.5 07:24:57 10° NNE 07:29:41 37° E 07:34:22 10° SSE visible
22 Aug 5.6 06:48:54 10° NE 06:52:24 18° E 06:55:51 10° SE visible
